Retour au catalogue

SL-19 DEB

ActifUNKNOWN
NORAD 23489·DEBRIS·🇷🇺 Russia

Lancé Dec 26, 1994 depuis Baikonur Cosmodrome

Loading…

Prochains Passages (prochaines 24 heures)

TLE

FraisSource: Space-Track

Époque: Sep 14, 2026, 14:14 UTC

1 23489U 94085M   26257.59325299  .00000366  00000-0  11213-1 0  9992
2 23489  64.9315 240.4004 0196503 182.6998 289.4957 11.29138533306073

Suivez SL-19 DEB en temps réel avec AllMySat

Download on the App Store